Theta_e
318 317 314 312 311 308 307 306 306 309 314 316 315 313 311 311 309 310 310 309 309 308 308 308 309 309 309 309 309 309 310 309 310 310 310 309 309 309 310 311 311 311 310 309 307 308 308 308 309 309 310 310 309 308 307 307 306 307 313 311 307 307 306 305 305 303 302 305 303 301 302 301 302 302 302 302 302 302 302 301 302 302 302 302 303 302 302 302
316 315 313 312 311 308 307 307 306 310 315 316 315 312 311 311 311 311 311 310 310 309 309 309 309 309 309 309 309 309 309 310 310 310 309 309 309 310 311 311 311 312 310 309 308 308 309 309 309 310 311 310 308 308 308 308 306 307 313 312 307 306 303 301 303 301 302 304 302 301 301 302 302 302 302 302 302 301 301 301 302 302 302 302 303 302 302 302
313 313 312 311 310 308 307 307 307 312 316 316 314 312 312 312 312 312 311 311 310 309 309 309 309 309 309 309 309 309 309 310 310 309 309 309 310 310 311 311 311 312 310 309 308 309 310 310 310 311 311 309 307 308 307 307 306 304 310 315 306 302 301 300 302 302 303 304 302 301 302 302 302 302 302 302 301 300 300 302 302 302 302 303 302 302 302 303
310 311 311 310 309 307 307 307 307 312 316 315 313 313 313 313 313 312 312 311 311 310 310 309 309 309 309 310 310 310 310 311 309 308 309 309 310 310 311 311 311 311 311 310 310 310 310 310 311 311 310 308 306 307 305 304 306 303 306 310 303 300 301 301 301 302 303 303 303 302 302 303 302 302 302 301 302 302 301 302 302 302 303 302 302 302 302 303
308 309 309 309 308 306 306 306 307 312 316 315 314 314 314 314 313 313 313 313 312 311 311 310 309 310 311 311 311 312 312 311 308 308 309 310 310 309 310 310 311 311 310 311 311 311 310 310 311 311 309 306 305 307 304 302 304 302 301 302 300 300 302 301 301 302 302 303 303 302 302 302 302 302 302 301 302 303 303 303 303 302 302 302 302 302 302 302
307 308 308 308 308 306 306 306 307 312 316 316 314 314 314 314 314 315 315 315 314 313 313 312 310 311 312 312 312 313 312 309 308 308 309 310 310 310 310 310 310 310 310 310 310 311 310 310 311 310 306 303 302 304 303 302 303 303 301 299 300 301 301 301 301 302 302 302 302 301 302 301 301 302 301 301 302 303 303 303 303 303 303 303 302 302 302 302
307 307 308 308 307 306 306 306 307 311 315 316 315 315 315 315 315 317 317 315 314 314 313 312 311 311 311 311 312 311 310 308 307 308 309 310 310 310 310 310 309 309 309 310 310 310 310 310 311 307 304 303 302 301 301 302 302 304 302 299 300 301 301 301 301 302 302 302 302 301 301 301 301 302 300 301 303 303 303 303 303 303 303 303 303 303 303 303
307 307 307 307 307 306 306 306 307 310 314 316 316 316 316 316 317 318 317 315 314 315 314 312 311 310 311 310 310 310 308 307 307 308 309 309 309 309 309 310 310 309 309 309 309 309 309 310 309 307 304 303 304 302 301 303 303 302 302 300 301 301 301 301 301 302 302 302 302 302 302 301 301 301 300 302 304 304 303 303 303 303 303 303 303 303 303 303
307 306 307 307 307 306 306 306 307 309 313 315 316 316 317 317 318 319 317 315 315 316 314 312 311 311 311 309 310 309 307 307 307 308 308 309 309 309 309 309 310 310 309 309 309 309 310 309 309 309 306 303 303 302 301 304 304 301 301 300 301 301 301 301 302 302 302 302 302 302 302 302 301 301 302 303 304 304 304 303 303 303 303 303 303 303 303 303
308 307 306 306 306 306 306 306 307 308 312 314 315 316 316 317 319 318 316 316 316 315 313 311 310 311 310 309 310 309 307 307 307 308 308 309 309 309 309 309 309 309 309 309 309 309 310 310 309 309 307 304 302 302 302 304 304 301 301 301 301 302 301 302 302 302 302 302 302 302 302 302 302 301 304 305 304 304 304 304 303 303 303 303 303 303 303 303
308 307 306 306 306 307 307 306 307 308 311 313 314 315 315 317 318 317 316 317 316 315 312 310 310 311 309 309 310 308 307 307 307 308 308 308 309 309 309 309 309 309 309 309 309 309 309 309 309 309 308 305 303 301 301 301 302 302 302 302 301 301 302 302 302 302 302 302 302 302 301 302 301 302 306 305 304 304 304 304 303 303 303 303 303 303 303 303
308 308 307 307 307 308 307 307 307 308 311 313 314 314 315 317 318 317 317 317 316 314 311 310 310 309 309 310 308 307 307 307 307 308 308 308 309 309 309 309 308 309 309 309 309 309 309 309 309 309 307 304 303 302 302 302 302 302 303 304 303 303 303 302 302 302 302 302 302 302 304 306 303 303 307 305 304 305 304 304 304 303 304 303 303 303 303 303
309 308 308 308 308 308 308 308 308 309 311 313 313 314 315 317 317 316 317 317 316 312 310 310 309 309 309 308 307 306 307 307 307 307 308 308 308 309 308 308 308 308 309 310 310 309 309 309 309 309 306 304 302 302 303 302 302 303 302 305 308 309 306 301 300 302 302 302 302 302 307 313 308 304 305 305 303 304 304 304 304 303 304 303 303 303 303 303
309 310 309 309 309 309 309 309 310 311 312 313 313 314 315 316 317 316 317 316 315 312 310 309 309 309 309 307 306 306 307 307 307 307 307 308 308 308 307 308 308 309 309 309 310 309 308 308 309 308 305 304 303 302 306 303 303 305 301 306 311 310 309 303 300 303 303 303 302 303 308 314 311 305 305 305 304 304 304 304 304 304 303 304 303 303 303 303
310 310 310 309 309 309 309 310 311 311 312 313 313 314 315 316 316 316 316 316 315 312 310 310 310 309 308 306 306 307 307 307 307 307 307 308 308 308 308 308 308 308 309 309 308 307 308 308 309 306 303 304 303 305 309 308 308 307 305 313 312 308 312 307 300 301 304 303 302 303 308 311 308 305 305 305 305 304 304 304 304 304 304 304 303 303 304 303
310 310 310 309 309 309 310 311 311 311 312 313 313 314 315 316 316 316 316 316 315 312 310 310 309 309 309 307 306 307 307 307 307 307 307 307 307 308 308 308 308 308 308 308 307 307 308 308 307 304 303 305 305 309 314 313 317 312 309 315 313 309 313 309 301 300 302 303 302 303 306 309 307 304 304 305 305 304 303 304 304 304 304 304 304 304 304 304
310 310 310 309 309 309 310 311 311 310 312 313 313 314 315 315 316 316 315 315 315 312 309 310 309 309 309 307 306 307 307 307 307 307 307 307 307 307 307 308 308 308 308 308 308 308 309 308 306 305 306 303 304 317 318 312 317 313 309 311 309 307 309 308 305 301 300 302 304 302 303 307 306 303 305 305 304 303 303 304 305 305 305 304 304 304 304 304
310 310 310 309 309 309 311 311 310 310 311 312 314 314 315 315 316 315 315 314 313 310 309 309 308 309 309 307 307 307 306 307 307 307 307 307 308 308 308 308 308 308 309 309 308 309 308 307 306 307 310 309 310 322 319 311 315 315 313 312 308 306 306 308 309 302 300 302 304 303 303 306 304 301 304 306 304 303 304 305 305 305 305 305 304 305 305 304
310 310 309 309 309 310 311 311 310 310 311 312 313 313 314 315 315 314 315 314 311 311 310 309 310 312 309 306 306 306 306 306 307 307 307 307 308 308 308 308 309 310 310 312 309 307 307 309 311 311 312 313 309 310 311 309 312 315 315 315 310 309 308 308 306 301 299 303 305 305 305 305 305 302 303 305 304 303 304 304 304 305 305 305 305 305 305 305
311 310 309 309 309 310 311 310 310 310 310 312 313 313 313 313 315 314 313 312 310 309 308 308 309 309 308 307 306 306 306 306 307 307 307 307 307 308 309 309 310 310 311 314 310 303 307 315 314 309 306 305 303 302 305 306 307 311 314 315 311 309 311 309 304 300 298 305 308 305 305 305 305 304 302 304 303 301 303 303 304 306 306 306 306 306 306 305
311 310 309 309 309 311 311 310 310 309 310 311 312 313 312 312 315 314 310 308 307 307 307 307 307 307 307 307 307 308 307 307 307 308 308 308 308 308 309 310 314 315 307 306 308 305 312 319 309 301 300 300 299 299 303 306 309 312 313 315 312 309 312 308 303 301 298 304 309 304 305 307 306 305 302 302 300 301 305 305 305 307 306 307 307 306 307 306
310 310 309 309 310 311 311 310 309 309 310 310 311 312 312 313 315 314 311 308 307 306 307 307 307 307 307 307 308 308 307 306 307 308 308 308 309 310 310 311 317 317 304 302 310 313 317 313 302 299 298 297 298 299 304 309 313 316 313 313 314 311 311 308 303 303 301 304 310 307 307 309 307 305 302 301 301 304 307 306 306 307 306 307 307 307 307 306
308 309 308 309 310 311 311 311 309 309 309 309 310 310 311 312 313 313 311 309 307 306 306 307 307 307 307 308 308 307 307 306 307 307 308 309 309 310 309 312 319 320 311 313 318 314 311 305 299 298 298 300 305 304 305 310 312 315 313 313 315 311 310 311 307 306 305 304 307 308 307 308 308 307 305 303 303 306 307 306 305 306 307 308 308 307 307 307
308 309 308 308 310 311 311 311 309 309 309 309 310 309 311 312 313 313 310 307 307 307 307 306 307 308 308 308 307 307 307 306 307 307 308 309 308 309 307 308 318 320 313 316 322 315 307 301 298 299 299 303 308 308 310 312 312 315 314 311 313 310 307 310 309 308 309 304 303 308 311 317 319 316 313 306 302 304 305 306 306 306 307 308 308 307 308 307
307 308 308 308 309 311 311 310 309 309 308 309 309 309 310 311 312 311 309 309 308 308 308 307 307 307 307 308 307 306 306 306 307 307 308 308 308 309 307 304 312 315 307 308 317 315 306 299 298 302 307 308 309 311 310 310 314 317 312 307 307 307 307 311 312 310 311 309 305 307 314 329 331 324 320 315 309 307 305 305 306 307 308 307 308 308 308 308
307 308 308 307 309 310 310 310 309 308 309 309 309 310 309 310 311 309 312 317 312 307 308 308 307 308 307 306 306 305 306 307 306 307 308 308 307 308 310 307 305 308 306 305 307 306 303 299 299 305 314 314 311 311 305 306 317 313 307 304 304 306 308 313 314 310 312 311 305 305 313 322 325 324 323 319 318 315 307 305 306 308 308 307 309 309 308 308
308 308 307 308 309 309 310 309 309 309 309 309 310 310 308 310 310 307 313 316 309 306 309 308 308 310 308 305 306 306 306 307 306 306 307 307 308 307 310 311 306 306 303 303 305 303 301 302 303 309 316 314 312 309 303 304 313 309 306 304 306 308 309 311 311 310 312 311 308 310 312 313 316 320 319 313 316 317 312 309 307 307 308 308 309 308 308 308
308 307 307 308 308 309 309 308 309 309 309 310 310 308 309 310 310 312 317 311 304 308 310 308 309 309 307 306 306 306 307 307 306 307 307 307 308 307 309 309 307 307 300 303 307 304 300 305 306 309 314 312 310 306 301 303 309 308 303 302 305 306 309 309 310 311 311 310 315 316 310 311 320 325 320 312 311 315 316 314 309 308 309 308 309 309 308 308
307 307 307 308 308 309 309 309 310 308 309 310 308 309 310 309 307 312 316 308 304 309 308 307 310 308 306 307 306 306 307 307 307 307 307 308 308 307 310 305 302 304 300 303 311 305 299 304 303 304 310 309 305 301 298 302 308 304 299 301 305 307 308 308 309 312 313 314 319 316 308 311 321 327 323 314 312 316 316 314 309 308 311 309 308 309 308 309
307 307 307 308 309 308 309 309 309 308 310 309 308 311 308 309 318 317 310 307 308 308 306 307 309 307 306 306 305 306 306 306 307 307 306 307 306 305 306 304 302 307 308 306 309 305 300 301 300 302 306 303 300 300 298 299 303 301 302 307 309 310 310 310 314 314 314 322 323 312 308 310 314 326 328 316 316 319 315 315 310 307 310 310 309 309 308 309
307 307 307 309 308 308 309 308 308 309 309 309 310 311 307 313 325 321 306 306 310 308 306 307 306 308 309 307 308 308 306 305 304 307 309 309 308 307 307 306 304 313 326 320 308 302 301 303 301 299 301 300 300 303 300 298 300 302 311 316 312 316 313 313 324 318 313 328 322 309 308 309 312 326 332 322 319 316 311 315 314 308 310 311 309 310 309 309
307 307 307 308 307 308 309 308 310 308 308 311 310 310 314 313 315 317 309 306 310 310 309 307 306 310 312 310 312 311 307 306 304 306 311 310 312 311 307 310 307 309 325 322 308 306 305 303 301 298 300 300 302 306 303 301 303 306 316 322 317 322 320 320 330 320 317 325 313 307 309 310 313 319 321 320 319 313 307 310 312 310 311 312 310 310 309 309
307 307 307 308 308 308 308 308 309 308 309 311 307 311 322 319 312 315 313 309 309 306 306 308 306 309 312 309 310 308 305 305 305 305 305 305 309 306 302 304 304 306 316 313 307 313 311 304 302 302 302 298 300 306 307 308 309 310 316 321 318 321 318 322 327 315 315 320 309 305 309 313 318 316 315 318 314 310 307 307 310 311 311 312 311 311 310 310
307 307 307 308 308 307 309 309 308 309 309 309 310 313 316 315 312 312 312 312 308 305 305 306 307 308 309 308 306 304 306 305 304 307 308 307 308 308 306 303 300 310 322 314 306 311 312 308 305 302 302 299 299 303 305 307 310 310 310 313 317 320 313 316 324 316 313 319 314 307 310 321 323 314 314 313 307 307 308 308 309 309 311 311 310 311 310 310
307 307 307 307 307 308 309 309 308 309 307 309 315 316 314 314 312 313 317 313 309 310 307 305 311 313 310 309 307 303 306 306 303 308 310 309 312 312 312 310 305 308 316 314 308 306 307 306 304 300 299 299 301 300 298 304 309 307 306 309 313 318 316 314 315 313 311 316 318 313 315 322 318 312 311 305 305 307 307 308 309 309 311 311 309 311 310 310
307 307 307 307 308 309 309 309 309 308 308 311 312 315 320 320 312 311 314 310 311 312 308 308 314 314 310 310 309 306 306 305 304 307 308 308 311 311 310 313 309 306 309 315 315 309 306 307 302 300 300 297 300 300 296 301 305 304 308 313 308 305 314 317 309 306 308 312 319 316 315 317 313 315 319 313 312 312 307 307 309 310 311 310 310 311 310 311
307 307 307 307 308 309 308 309 309 308 309 311 312 316 321 316 308 309 309 306 309 309 310 314 311 308 310 310 309 309 308 306 305 307 309 307 308 309 310 310 304 303 306 309 312 309 308 310 304 300 303 299 297 299 298 298 301 305 309 311 304 301 309 314 310 314 316 315 320 316 315 317 314 315 324 324 323 322 315 307 305 309 310 309 312 312 311 311
307 307 307 308 308 308 308 308 309 310 309 308 314 317 314 308 304 306 307 304 306 309 313 318 310 305 310 310 310 309 306 308 310 309 309 308 307 308 311 311 305 301 301 302 307 306 306 312 310 299 302 302 296 298 304 300 297 303 305 302 304 308 312 311 311 317 315 313 319 320 317 314 312 318 324 324 324 325 321 312 305 307 309 310 313 312 312 312
307 307 307 307 308 308 308 308 308 309 308 310 317 315 307 308 306 304 307 305 306 310 312 314 309 306 308 311 313 309 305 311 314 310 308 307 307 306 306 309 307 302 301 301 306 307 305 309 314 303 299 300 298 301 310 308 299 299 301 302 305 311 314 313 312 314 314 316 318 320 321 315 314 325 327 321 322 322 322 319 310 307 309 311 313 313 313 312
306 306 307 307 308 308 308 308 308 308 308 311 319 315 306 307 307 304 307 306 305 308 311 314 312 310 309 308 309 308 307 311 313 311 308 305 306 307 303 305 306 304 302 300 303 310 306 303 312 310 299 300 307 306 309 313 308 305 308 309 307 307 309 309 309 310 315 322 318 315 320 317 314 322 323 319 320 315 314 315 309 307 310 312 312 313 313 312
306 307 308 307 307 308 307 308 306 307 310 309 310 312 308 307 307 305 306 307 305 305 310 314 314 314 313 309 309 308 307 311 312 311 309 306 307 308 304 302 305 304 304 304 306 310 307 306 314 315 308 311 314 304 298 302 305 308 312 314 312 312 312 312 311 310 310 314 317 315 317 315 315 320 322 318 313 307 306 307 306 308 311 312 312 313 313 313
306 307 309 307 307 307 307 309 304 302 311 312 307 309 309 307 306 306 306 306 306 304 306 309 310 313 316 313 311 309 308 311 310 309 309 308 307 308 305 302 303 303 306 310 309 304 303 309 313 313 316 313 303 295 294 295 296 300 304 306 309 312 316 316 316 316 310 306 311 314 314 314 314 311 310 309 306 305 306 305 306 310 311 312 313 312 312 313
306 307 308 307 308 307 307 310 304 303 310 309 304 305 307 306 305 306 307 306 306 306 307 309 308 310 311 308 308 310 309 309 310 309 312 311 307 304 302 301 302 302 304 309 308 301 303 310 310 313 322 312 298 295 294 292 294 302 304 302 306 311 315 318 317 316 313 309 311 314 313 317 316 304 301 305 306 306 309 308 308 311 312 314 314 313 313 312
306 307 307 307 307 307 308 311 311 313 312 305 303 306 306 305 305 307 308 307 305 306 310 312 308 306 306 304 307 310 307 307 309 308 308 310 306 300 299 302 302 301 303 306 307 303 305 312 312 312 319 320 314 309 304 299 300 307 308 304 305 308 311 313 310 308 310 314 316 316 315 317 318 309 304 305 304 305 309 310 309 310 312 313 314 314 314 313
306 307 306 306 307 307 308 310 313 320 315 308 309 309 307 307 305 306 307 306 304 304 308 310 306 305 305 303 307 308 303 304 309 307 305 308 305 299 299 302 301 301 302 303 302 302 305 311 315 315 315 314 317 318 314 312 309 307 306 304 303 305 307 310 311 309 311 313 313 315 316 313 314 315 311 308 307 307 309 310 309 310 311 312 313 313 313 314
307 308 306 306 307 307 307 306 308 315 315 312 310 309 310 311 306 304 306 306 305 304 305 306 304 305 308 306 309 310 304 302 305 306 308 309 305 299 298 300 300 300 302 302 301 303 307 309 312 317 318 313 314 317 312 311 312 311 310 307 305 304 305 310 314 314 314 313 311 312 314 311 310 312 310 310 310 309 308 308 309 310 311 311 312 312 313 313
307 309 308 306 307 307 307 306 305 309 311 310 308 308 311 313 307 305 306 305 305 305 305 305 304 307 311 309 311 312 307 305 305 306 309 309 303 298 297 299 300 300 301 302 301 304 310 311 309 311 312 310 310 309 306 307 311 313 312 311 308 304 304 308 311 312 313 314 312 311 311 310 310 310 309 310 310 309 306 306 308 309 309 310 310 310 311 311
307 308 306 307 311 310 308 308 307 306 306 307 308 308 310 312 310 309 308 304 303 305 306 307 306 309 312 310 311 311 307 307 308 308 308 307 304 301 299 298 298 300 301 301 300 304 312 313 308 306 310 312 308 305 306 308 309 310 311 312 310 305 304 307 308 309 311 312 312 312 312 312 310 309 310 310 309 308 307 307 308 308 308 309 308 309 309 310
306 307 305 306 310 309 307 308 307 305 305 306 309 309 310 313 312 309 306 305 306 305 305 310 313 313 312 309 311 314 312 310 311 311 310 308 305 305 306 305 300 298 300 300 299 301 308 314 309 304 309 315 310 304 303 305 308 309 309 308 308 306 305 307 308 307 308 310 311 311 311 310 308 308 308 308 308 307 307 307 307 307 308 308 308 308 309 309
305 307 306 305 306 304 305 306 306 307 307 306 308 309 308 312 313 308 304 308 313 309 303 309 317 313 307 308 313 317 314 312 312 312 310 310 308 307 310 311 306 299 299 302 301 299 303 313 310 306 311 317 310 303 302 302 305 309 309 306 305 306 305 304 303 304 305 307 307 307 307 307 307 306 306 307 307 306 306 306 307 307 308 308 308 309 309 309
306 307 306 307 307 304 304 304 304 309 310 307 308 308 307 311 312 308 306 307 311 312 306 307 313 309 303 305 311 313 309 307 310 310 308 309 310 308 307 307 306 305 303 301 302 302 303 308 307 305 313 318 309 305 307 305 304 307 311 309 304 305 306 305 303 303 305 306 306 306 306 307 307 306 306 306 306 305 305 306 306 307 307 307 307 308 308 308
306 307 307 308 308 305 303 302 303 308 310 307 306 306 306 307 306 305 308 307 305 307 307 304 306 310 310 308 309 309 306 305 307 307 305 306 306 305 304 303 304 307 305 301 303 303 305 311 312 308 313 317 309 305 309 310 309 314 320 316 310 306 305 304 304 303 304 305 307 307 308 308 307 306 306 307 306 305 306 307 306 307 307 307 307 307 307 308
Wind_Speed
4 3 3 3 2 5 8 11 14 15 16 16 16 16 16 17 16 15 13 13 13 13 14 14 15 15 14 13 11 10 9 9 12 18 16 14 13 9 7 7 8 8 8 9 11 14 16 17 18 21 22 20 19 17 13 11 9 5 3 5 4 2 3 6 6 6 4 3 6 6 5 3 2 3 1 0 2 3 5 6 8 9 9 10 8 7 8 8
5 4 4 4 4 6 9 12 15 15 16 16 16 16 16 16 15 13 12 11 11 10 11 11 12 12 12 12 10 12 10 11 18 21 16 13 10 8 6 7 6 7 9 12 15 17 19 19 18 19 21 19 16 12 11 11 12 8 3 5 3 4 4 5 6 8 5 5 9 6 3 2 2 3 0 1 3 5 5 7 9 11 13 12 11 10 10 11
6 5 6 5 5 7 10 12 15 16 16 16 17 17 15 15 14 12 11 11 10 10 10 9 10 10 10 11 12 14 14 15 18 18 15 12 10 7 5 6 5 6 9 11 12 12 13 14 14 17 21 21 15 13 13 11 10 7 4 5 2 5 4 3 6 7 6 9 10 5 3 2 2 2 1 2 5 6 8 10 11 13 13 11 12 12 12 13
7 7 7 6 6 7 10 12 14 15 16 16 17 16 14 14 13 11 10 10 9 9 8 8 11 12 12 12 12 11 12 14 12 15 12 12 10 7 5 5 4 5 6 7 7 7 9 12 13 16 20 17 13 14 13 12 8 6 5 4 4 6 4 3 5 6 8 11 9 5 3 2 0 2 2 1 4 7 11 12 13 13 11 8 10 12 13 14
8 8 8 7 6 7 10 12 14 15 15 16 17 15 14 13 11 10 9 8 8 6 6 5 8 10 9 7 6 5 7 7 8 10 9 10 9 8 6 4 3 4 3 3 3 4 6 8 12 14 16 12 12 10 9 12 11 9 5 3 5 6 3 3 6 8 11 10 7 5 3 1 1 3 4 4 4 8 8 7 8 9 8 7 9 11 13 14
8 9 8 8 7 8 10 12 13 15 15 15 16 14 13 12 10 9 7 7 6 5 5 3 3 3 1 2 1 1 5 5 5 7 9 8 8 7 6 4 4 4 2 2 2 3 3 4 10 13 12 10 12 9 8 10 8 7 4 4 5 5 6 7 9 10 9 6 5 4 2 1 2 3 5 9 15 15 11 7 7 7 8 9 10 12 13 14
8 9 9 9 8 9 10 12 13 14 14 14 15 13 12 10 9 7 7 7 6 5 5 3 2 1 1 3 2 4 13 10 5 7 7 6 6 5 5 4 4 4 4 4 2 3 3 4 12 17 12 8 9 10 13 17 15 11 4 5 8 8 10 10 9 8 5 3 4 3 2 1 2 3 6 14 21 18 15 14 12 9 9 12 13 14 14 13
7 9 9 9 9 9 11 12 13 14 14 14 14 12 11 10 8 7 6 6 5 4 3 2 3 3 4 3 6 14 17 11 8 7 6 4 4 4 4 3 5 5 5 4 2 3 6 10 17 17 11 7 8 7 10 16 17 11 4 5 9 8 9 9 7 6 4 3 3 1 1 3 5 6 11 21 23 18 16 15 15 13 11 14 15 15 14 14
6 8 8 9 9 10 11 12 13 14 14 14 13 11 10 10 8 7 6 5 4 3 2 2 2 3 4 4 12 15 12 9 9 7 4 3 2 4 5 4 5 5 3 3 5 6 7 10 11 9 11 11 9 7 5 6 7 6 7 8 9 8 7 8 6 5 3 3 3 1 3 4 6 7 13 18 15 14 18 17 16 16 15 16 16 16 15 15
5 6 7 8 9 10 11 12 13 14 14 13 12 11 10 10 9 8 6 3 2 2 2 2 3 4 6 8 12 11 7 8 10 6 5 3 2 5 7 6 7 6 3 4 5 4 4 8 12 16 19 15 10 9 8 7 8 12 16 14 11 9 7 5 4 4 3 2 3 2 4 6 5 3 8 10 5 6 14 18 19 18 18 18 17 17 16 16
5 6 7 8 9 10 11 12 13 14 13 13 11 10 9 9 9 8 5 2 2 3 2 3 3 5 7 11 13 11 5 9 10 8 9 7 5 5 3 5 6 3 3 5 8 8 9 14 18 15 12 13 13 14 14 15 18 19 18 12 8 6 5 4 4 3 2 2 4 4 6 7 2 2 11 15 11 13 13 16 19 19 19 18 18 17 16 17
6 6 6 7 8 9 10 11 12 13 13 12 10 9 9 8 8 7 4 2 3 3 2 3 5 5 7 9 17 13 7 11 11 11 12 10 11 8 5 6 6 5 3 8 15 14 12 9 7 6 10 15 11 10 14 17 16 13 9 5 4 4 4 2 3 2 2 3 5 5 6 6 3 10 15 12 12 15 15 15 18 20 19 18 18 18 17 17
6 6 7 7 8 9 9 10 11 12 11 10 9 9 8 8 8 6 4 2 3 4 2 4 7 5 6 9 16 12 9 11 11 10 10 11 15 13 12 12 9 8 4 5 10 8 7 3 4 15 21 16 9 10 15 13 10 5 3 4 3 6 4 1 2 2 2 2 4 5 4 6 6 13 14 11 10 10 13 16 17 19 20 19 18 18 18 17
7 7 7 8 8 8 8 10 11 11 10 10 9 8 9 9 8 6 4 3 3 3 2 3 3 2 6 12 13 9 9 11 9 8 9 10 12 13 13 10 5 7 6 6 11 12 13 11 12 21 20 16 18 19 13 6 5 2 2 3 3 2 2 4 1 3 3 2 2 5 0 7 9 11 10 13 16 13 14 17 17 18 19 19 18 19 18 16
8 7 6 7 8 9 9 11 11 10 10 10 9 9 9 9 8 6 5 3 3 4 1 2 1 3 10 13 11 10 9 9 8 8 11 10 10 10 9 8 9 13 15 16 18 19 17 13 15 20 18 20 22 13 5 4 4 3 1 3 3 2 4 6 1 3 2 2 3 5 2 7 10 12 9 9 15 16 18 18 18 19 18 19 18 18 18 16
8 7 6 7 8 9 11 12 11 10 11 10 9 9 9 9 8 6 5 3 3 4 1 2 2 7 11 9 8 10 9 8 10 10 13 12 12 12 11 12 15 17 19 19 17 14 11 9 17 20 15 14 10 5 5 4 4 4 2 1 2 1 3 4 2 0 2 3 1 2 2 5 5 5 3 3 8 13 18 20 20 20 19 19 18 18 18 16
9 7 6 6 8 11 12 12 9 9 11 11 10 10 9 9 8 6 4 2 2 3 2 5 7 9 9 6 6 9 9 10 11 12 13 14 14 14 13 13 15 17 15 15 10 7 6 8 13 11 7 7 3 4 5 4 4 4 3 2 2 1 1 3 3 2 2 2 2 0 2 8 10 13 15 14 15 16 20 24 22 21 21 20 19 19 18 17
9 7 6 6 8 12 13 11 9 9 11 11 11 10 9 9 7 5 3 2 2 4 4 6 8 6 5 5 6 7 9 10 10 11 10 10 11 11 11 10 11 11 8 8 7 8 9 8 8 4 4 6 5 5 4 2 2 3 1 1 2 1 1 3 3 1 3 2 2 1 4 12 14 20 28 25 18 19 24 26 25 23 23 21 21 20 18 18
10 7 6 6 9 13 12 10 9 10 11 11 11 10 9 8 7 4 1 1 4 5 3 4 6 4 3 6 7 8 9 9 8 8 7 8 9 9 9 8 5 4 3 4 7 11 9 7 7 5 4 4 4 3 4 4 4 5 5 4 3 1 3 4 4 3 3 1 4 5 7 12 13 15 24 22 13 15 22 26 27 26 24 22 22 21 19 18
11 8 7 7 11 13 11 10 9 11 13 12 12 10 8 8 5 2 3 6 10 10 5 6 10 8 8 8 8 8 8 7 6 6 6 6 7 7 6 4 3 7 7 2 4 8 7 6 6 2 1 1 2 1 4 4 4 5 5 4 3 1 4 3 3 4 2 1 5 6 6 11 13 14 22 23 14 15 21 24 27 27 25 23 21 20 19 17
12 10 8 8 12 13 10 10 9 12 13 13 13 10 7 7 3 2 8 13 15 14 11 11 12 11 10 8 6 6 6 6 6 4 4 4 5 4 1 3 4 7 7 2 1 5 6 5 3 1 2 1 1 2 4 4 5 5 5 3 2 2 4 3 1 3 1 1 4 2 4 11 13 13 21 20 11 15 21 23 25 25 23 22 20 19 17 15
12 11 9 9 13 13 10 9 8 12 13 13 14 9 7 7 3 4 8 11 13 13 12 11 12 11 10 8 6 4 3 4 5 4 3 2 2 1 1 5 7 3 5 5 2 5 6 3 1 2 1 2 4 3 4 5 5 4 3 2 2 2 4 3 2 4 2 1 4 4 6 12 13 11 18 19 16 17 18 18 19 20 20 20 19 17 15 14
13 13 11 11 13 14 11 9 8 11 12 13 13 7 6 7 4 6 7 9 9 10 9 9 10 9 8 6 5 3 3 5 5 5 5 0 1 3 4 6 6 2 6 6 4 3 3 0 1 1 1 1 4 4 4 5 4 3 3 2 3 3 3 3 3 4 2 1 3 5 6 11 10 7 12 15 15 16 15 15 15 15 17 18 17 16 15 15
14 13 13 12 13 14 12 10 9 10 11 13 11 6 6 6 6 9 8 8 5 6 7 7 8 8 7 6 5 4 6 7 7 7 8 3 3 5 6 6 5 4 5 3 7 7 1 2 1 2 1 2 2 4 5 5 4 3 2 3 2 2 2 4 4 5 3 1 1 4 6 6 6 5 7 5 5 10 12 14 15 15 16 16 16 17 17 15
14 14 14 12 13 14 13 11 10 10 11 11 8 5 7 8 9 10 6 6 2 2 4 4 6 7 6 6 5 5 7 8 9 8 8 7 5 4 5 5 4 3 1 1 8 7 2 1 1 1 4 5 4 3 3 2 2 4 2 1 1 2 1 4 5 5 4 4 2 4 5 5 5 5 8 4 4 7 9 11 16 16 15 17 18 18 17 15
15 15 15 14 14 15 14 12 10 10 10 10 7 7 10 11 10 8 4 5 2 2 0 1 3 3 3 4 4 5 4 4 8 8 6 7 6 4 4 4 5 3 4 3 6 4 2 2 1 3 5 6 5 2 1 3 2 1 1 1 3 3 2 3 6 4 1 3 2 4 2 5 7 6 8 5 6 8 8 10 16 17 16 19 19 19 17 16
15 15 16 15 14 15 15 12 10 10 10 8 8 10 13 12 10 6 3 5 2 1 2 1 1 1 2 3 3 4 0 1 4 7 7 7 5 4 2 2 4 4 3 4 3 1 1 2 4 5 5 6 5 2 1 3 3 2 1 2 3 4 3 2 5 2 2 3 3 4 3 2 6 7 7 4 5 9 9 10 15 17 17 19 20 19 18 17
15 16 17 16 16 17 15 11 11 10 8 8 10 13 13 11 9 5 5 4 1 1 3 1 2 3 4 5 4 5 3 2 3 4 6 7 4 3 2 1 5 5 2 2 1 2 1 2 2 4 6 4 0 1 0 2 1 3 2 2 2 3 3 3 4 0 2 3 4 5 3 1 6 7 5 4 3 8 10 10 13 17 18 19 21 20 18 18
16 17 19 17 17 18 15 12 11 8 8 12 14 13 10 9 7 4 5 2 1 2 2 2 4 3 3 6 5 5 5 3 3 2 4 6 5 4 5 6 10 10 7 5 3 2 2 2 0 3 4 1 2 1 1 1 1 2 2 2 3 4 3 4 3 0 2 3 4 5 4 1 5 7 5 3 2 7 10 8 12 18 19 18 20 20 19 19
17 19 19 18 17 18 16 13 10 8 12 16 13 11 9 7 5 6 2 3 1 2 1 2 3 1 2 3 4 5 4 3 4 4 4 5 5 6 10 10 8 8 6 8 6 1 1 2 2 3 3 2 2 2 2 1 2 1 2 1 3 4 3 3 2 2 3 3 6 5 3 1 3 7 4 3 4 7 7 6 9 16 19 20 21 20 20 20
19 20 19 18 17 19 17 15 11 11 17 17 11 11 10 5 5 5 3 3 2 1 1 1 2 2 3 3 2 4 4 4 5 4 3 5 6 5 8 6 2 4 5 6 5 2 2 3 2 2 3 3 4 3 2 2 2 1 2 2 4 4 3 3 4 4 3 3 6 4 2 1 2 6 5 5 7 6 7 7 8 15 21 23 22 22 22 21
20 20 19 17 17 19 18 15 12 14 18 15 10 9 8 4 1 2 3 2 1 1 1 1 2 3 3 2 3 3 2 3 6 6 2 2 4 3 3 3 3 3 4 2 2 2 1 1 1 2 2 2 3 2 3 3 2 3 3 4 4 4 4 3 3 2 2 4 3 2 2 1 5 9 9 10 11 10 13 14 12 16 23 25 24 23 23 22
20 20 19 17 17 18 18 16 14 16 19 15 8 5 6 5 3 5 2 1 1 1 1 2 1 2 2 2 2 3 1 1 4 5 2 1 4 2 1 2 3 2 1 3 1 4 3 4 2 2 1 1 3 1 1 2 2 3 2 3 3 2 3 3 4 3 4 4 2 2 2 2 5 7 9 12 12 12 15 18 17 16 19 23 25 24 23 23
20 20 19 17 16 17 17 16 16 17 20 16 6 5 6 2 5 3 2 3 1 2 2 2 2 3 3 2 1 3 1 1 3 3 2 2 3 1 2 2 0 3 4 2 0 2 1 3 2 1 1 2 0 2 2 1 2 1 2 4 3 3 2 3 4 2 5 4 3 3 1 3 3 3 6 10 13 13 13 16 18 17 16 19 23 25 26 26
20 19 19 16 14 15 14 15 16 17 21 17 5 6 4 4 3 2 3 4 2 0 1 2 4 5 4 3 2 1 2 1 2 3 3 1 2 2 2 3 2 3 5 2 2 2 1 4 3 2 1 1 1 2 1 1 2 1 2 4 1 3 3 1 3 4 2 3 4 3 3 5 4 7 10 10 14 16 15 14 16 19 18 17 21 26 28 28
21 20 19 16 13 13 12 14 16 17 21 15 5 2 6 4 2 3 4 4 4 5 4 3 4 4 2 3 3 3 1 0 1 2 2 1 3 4 3 3 4 4 5 4 3 2 1 4 3 3 2 1 1 2 2 1 1 1 2 1 2 3 5 3 1 1 4 1 4 2 4 5 5 8 9 7 8 11 11 11 15 19 19 18 22 26 29 30
22 21 19 16 13 11 12 16 18 18 19 12 5 4 6 2 2 4 4 5 6 7 7 3 1 2 2 2 2 3 1 1 1 1 1 2 2 4 3 2 4 4 3 2 3 3 2 3 4 1 0 1 1 1 2 2 1 2 2 3 3 2 4 4 0 4 4 1 4 2 4 6 3 5 8 8 8 9 8 8 11 16 18 21 25 26 28 30
23 22 19 17 14 11 13 19 20 17 13 8 2 4 3 2 3 5 6 5 5 5 5 4 2 1 3 3 3 3 1 2 2 1 2 2 2 4 4 1 2 2 2 2 1 0 2 2 5 1 1 2 1 0 2 4 4 2 3 2 2 2 1 2 1 1 2 3 5 5 6 4 3 5 6 7 7 8 8 6 7 13 20 25 28 27 27 29
23 21 17 17 15 12 13 20 21 14 8 5 4 4 2 2 2 5 7 5 4 4 3 4 2 2 3 5 3 3 3 3 3 1 2 1 2 3 3 2 2 2 2 4 3 0 2 1 4 3 2 2 2 1 3 1 3 3 1 2 1 3 3 1 1 2 1 2 3 5 6 4 6 6 5 8 9 8 8 6 7 16 24 27 29 29 29 30
23 17 12 18 18 13 13 18 18 10 4 3 5 3 1 1 3 7 9 5 2 3 2 4 4 3 3 3 2 3 2 3 4 3 2 2 2 3 2 2 4 4 2 3 2 1 3 2 4 5 2 1 1 2 4 4 3 1 1 1 1 1 2 0 1 2 3 2 2 2 5 7 7 5 7 10 10 7 7 7 10 18 23 27 30 31 30 31
22 11 9 19 20 14 15 15 10 6 3 1 2 1 1 2 4 7 9 6 2 1 2 4 5 4 4 3 3 4 3 2 3 2 2 3 2 1 1 4 6 6 5 3 1 1 2 3 3 2 2 3 4 3 2 3 4 4 4 4 3 3 3 2 3 3 2 2 4 3 4 10 7 4 7 9 8 8 8 9 13 18 19 22 28 31 32 33
22 8 8 20 20 17 18 10 2 3 3 2 3 1 2 4 4 6 9 6 1 1 2 3 3 3 4 3 3 4 4 3 3 2 2 4 3 1 2 6 8 8 7 2 2 2 2 4 2 2 4 4 5 3 0 2 2 3 1 2 3 4 5 5 3 4 1 1 1 3 2 9 6 3 7 9 9 11 10 11 16 18 16 17 21 25 30 34
21 10 10 19 21 22 18 5 2 1 1 2 3 2 3 4 4 5 7 5 1 1 1 1 1 2 3 2 3 4 4 4 5 4 3 4 2 0 4 7 8 7 5 1 2 3 3 3 2 3 4 3 5 3 1 1 1 1 2 1 4 3 3 5 5 3 2 3 3 2 3 8 6 3 6 8 10 12 11 11 15 18 16 15 17 19 23 28
19 12 11 17 22 24 16 4 2 3 2 1 3 3 3 3 4 5 5 5 4 2 2 1 2 2 1 2 4 4 4 3 4 4 2 3 2 1 4 6 6 6 3 1 4 5 3 1 3 1 5 6 6 5 4 2 0 2 3 1 2 3 5 4 3 3 1 5 7 5 6 10 6 4 6 8 9 12 16 14 14 17 19 19 20 21 21 22
17 9 8 16 23 22 13 5 6 5 2 3 3 2 2 1 3 5 3 4 4 3 2 1 3 4 2 3 4 1 1 1 1 2 1 2 1 1 2 4 5 4 1 1 4 6 4 2 4 4 1 3 3 3 3 2 1 2 1 1 4 4 6 4 2 3 3 5 6 6 8 11 9 7 10 11 9 13 23 24 21 22 25 26 26 26 25 24
17 6 4 10 15 16 11 7 7 6 4 5 2 1 3 1 2 4 3 4 4 4 3 2 3 4 3 2 3 1 0 2 2 1 1 2 1 1 1 2 3 3 1 2 5 4 2 1 3 6 6 6 6 6 5 3 2 2 2 3 5 5 4 5 4 3 5 3 3 9 11 14 18 16 15 15 9 9 19 26 26 25 26 27 27 27 28 28
14 6 7 10 7 8 7 7 9 7 6 9 5 3 6 3 1 2 2 3 4 5 4 1 3 4 2 5 4 1 1 2 2 1 2 2 0 2 0 2 2 4 3 3 5 4 4 1 4 6 7 7 5 5 4 2 3 5 5 4 6 7 6 6 6 6 6 5 6 12 10 10 20 21 17 17 12 8 15 23 25 26 27 28 30 31 33 33
10 7 15 17 8 6 7 10 14 10 9 11 6 3 7 5 3 5 4 2 3 6 5 0 3 6 7 7 5 3 3 2 2 3 2 2 1 3 2 1 1 4 4 3 4 3 4 2 4 3 5 7 2 2 2 3 4 4 5 7 7 9 10 11 13 10 8 7 13 12 8 11 18 19 17 20 19 14 19 27 29 31 34 36 36 36 36 36
12 6 13 17 10 9 12 13 17 14 9 9 4 2 8 8 7 5 3 3 1 4 6 4 6 8 7 6 5 5 5 3 2 5 3 3 2 2 2 1 2 4 3 3 2 2 3 3 2 2 4 7 4 3 1 3 3 4 7 10 7 10 14 15 15 11 10 14 18 15 13 14 17 19 22 31 34 29 30 35 35 35 36 35 35 35 34 34
17 10 13 14 7 8 14 15 17 13 5 5 4 3 7 9 9 6 3 6 5 3 6 7 6 6 7 6 6 4 7 8 3 4 7 5 2 4 3 3 4 3 1 2 1 1 2 3 1 4 3 7 4 4 3 1 2 5 10 10 7 9 11 12 11 7 8 14 18 15 15 16 22 28 29 34 36 29 28 32 32 33 32 30 31 32 32 32
23 16 15 16 7 7 12 12 13 9 3 5 7 4 5 8 11 9 6 8 8 5 9 13 8 5 3 3 6 8 10 9 4 1 10 9 4 6 5 4 8 7 2 2 2 2 3 1 1 5 2 6 4 5 5 3 1 6 13 14 12 11 8 8 8 6 9 14 15 10 9 12 20 24 21 22 25 21 23 29 29 31 31 29 31 33 34 35
25 17 17 17 8 5 10 8 8 8 5 7 9 6 5 9 13 14 7 6 8 7 9 16 14 8 3 4 10 15 13 8 3 3 9 7 4 6 6 6 10 9 6 5 2 1 4 3 1 3 1 6 5 3 3 5 4 6 11 11 14 13 10 8 6 7 13 13 9 7 11 13 14 14 12 15 19 19 24 29 29 32 35 33 33 34 35 35
Wind_Direction
184 189 191 184 159 131 130 132 132 133 129 125 124 121 119 116 113 109 106 106 107 109 109 109 112 114 119 119 120 122 130 144 139 133 114 70 52 47 60 88 94 88 90 97 108 118 125 127 126 123 119 109 90 83 79 65 53 62 81 73 99 160 165 170 181 183 159 158 190 188 184 166 158 176 160 67 312 294 282 267 258 258 255 261 273 286 280 269
189 190 184 175 161 140 133 135 136 137 134 130 129 126 124 122 119 114 110 108 109 115 119 123 126 126 127 119 119 122 125 145 130 109 84 56 47 54 81 109 101 92 102 112 120 125 125 122 121 122 117 96 74 77 80 57 47 55 96 84 121 197 160 160 177 174 151 151 177 177 169 161 143 167 25 351 321 310 286 273 260 260 261 261 270 279 273 265
187 187 185 176 164 145 138 140 140 142 139 135 134 130 128 126 124 118 111 106 103 108 113 122 128 132 132 125 129 122 117 131 109 73 61 60 57 69 93 118 105 102 113 117 123 123 117 113 115 118 108 87 68 78 74 49 43 39 69 84 192 195 147 156 170 165 163 164 162 156 164 136 124 169 28 359 327 303 265 265 258 260 265 266 273 272 266 261
180 182 184 176 165 150 145 146 146 148 143 140 139 134 131 129 126 122 110 99 96 100 100 109 124 124 124 126 132 124 114 115 64 30 55 64 59 72 90 128 113 111 122 118 120 112 103 105 116 112 94 77 56 70 53 31 51 44 55 106 165 154 115 141 168 164 160 161 158 150 150 97 39 234 262 290 336 290 262 269 262 264 274 273 273 267 261 258
178 181 182 177 168 157 153 152 153 153 148 146 144 140 137 133 130 125 110 90 84 85 73 94 128 120 118 122 126 133 117 99 13 15 67 67 63 72 84 128 139 146 150 132 137 111 101 112 122 101 77 57 35 55 35 30 74 66 41 110 129 138 110 132 158 152 151 158 163 141 118 39 314 260 256 232 233 255 270 297 275 272 279 267 266 264 258 255
180 182 181 179 171 164 161 159 160 158 155 153 151 150 145 140 134 125 113 88 72 65 53 71 135 126 131 88 43 205 118 92 353 33 77 76 69 65 74 95 116 137 158 152 149 94 99 128 117 89 70 56 39 55 42 32 86 94 55 76 97 135 125 135 147 140 146 150 149 128 106 10 317 270 269 248 243 254 269 287 282 276 263 252 253 252 250 250
180 185 182 181 173 169 167 166 167 164 161 160 159 160 156 151 141 128 116 94 73 60 52 59 85 95 90 50 19 109 99 85 40 63 85 87 81 75 76 86 103 106 112 117 92 70 98 139 112 92 82 78 62 70 64 62 85 101 95 72 89 118 123 136 143 134 140 117 111 107 106 358 318 284 288 266 259 264 266 266 269 268 252 244 244 242 245 249
179 187 185 181 177 172 171 171 172 170 168 166 168 168 166 163 150 139 122 104 92 67 39 44 86 114 87 74 119 98 77 58 52 77 95 92 76 67 70 95 113 106 109 105 96 120 123 123 113 96 79 82 93 92 76 70 65 68 101 103 98 110 120 134 136 127 120 80 84 93 305 308 302 290 281 273 272 271 264 262 257 251 247 243 245 246 246 248
170 184 189 185 180 175 174 176 175 174 172 171 173 173 172 170 161 151 132 116 106 63 14 53 118 143 88 137 135 93 47 32 58 71 88 99 65 51 59 84 121 116 117 143 142 139 134 118 118 123 113 107 103 87 62 67 47 59 107 110 105 107 116 133 135 117 110 71 62 317 311 309 300 301 283 281 290 275 256 251 248 246 244 244 250 253 251 251
157 176 185 186 182 178 177 178 179 177 175 175 175 175 176 173 168 156 143 129 90 34 13 88 149 142 120 161 138 88 32 49 62 57 60 52 44 57 52 72 112 111 122 176 163 158 167 125 118 123 115 103 88 65 53 85 113 115 107 100 99 105 110 129 138 117 114 57 24 329 315 304 300 322 271 273 326 292 252 239 242 246 245 247 251 254 254 254
146 162 172 181 181 177 177 178 180 178 176 176 174 174 174 171 170 159 149 133 54 20 43 99 118 118 152 163 119 89 71 74 68 65 61 41 44 69 69 80 96 104 202 166 123 115 126 120 118 116 100 96 88 71 80 105 118 118 110 91 73 99 112 108 129 122 98 51 7 333 302 290 277 200 257 266 277 281 267 245 241 244 247 249 250 252 253 253
143 155 160 170 174 173 175 177 178 177 176 176 172 173 169 165 165 155 144 115 36 21 61 105 95 107 167 138 96 95 99 86 80 72 67 62 67 84 113 107 100 105 156 127 108 111 118 116 128 122 113 120 109 77 98 114 115 115 111 87 16 43 80 69 101 98 82 55 9 355 315 296 222 229 255 276 280 271 262 251 244 242 247 249 249 251 249 253
145 153 156 161 168 172 174 172 172 172 174 175 172 168 162 159 158 151 139 102 36 35 71 114 109 129 168 99 83 99 106 89 82 72 67 67 72 84 102 109 108 90 68 106 109 109 108 110 150 122 117 119 116 114 120 117 106 98 69 84 16 8 22 359 71 98 93 53 20 31 324 294 255 245 257 268 269 268 253 248 245 243 246 247 249 251 251 253
147 152 155 157 165 171 172 168 164 166 171 173 169 162 156 156 154 150 139 101 38 38 83 127 114 167 140 97 85 94 93 87 82 75 73 71 83 95 103 106 85 66 66 95 101 94 99 119 129 113 105 106 115 118 113 83 74 65 355 44 39 21 299 300 41 128 90 51 79 81 262 267 274 282 292 267 253 255 255 250 247 246 247 248 249 251 255 255
151 154 160 159 167 171 168 164 158 160 167 169 167 159 152 154 154 151 139 105 46 33 76 141 61 143 115 94 89 89 80 89 95 85 82 86 101 104 105 101 87 89 92 92 95 99 108 126 116 97 95 109 116 113 69 18 26 37 5 318 355 59 277 300 45 151 102 99 133 103 228 268 281 289 304 274 248 242 252 256 250 249 250 251 253 254 259 261
162 164 173 169 170 169 163 160 156 158 163 164 165 158 153 159 159 151 137 111 54 30 52 97 90 139 115 86 92 95 89 100 99 92 93 98 105 107 107 103 99 97 94 92 97 103 111 116 99 92 99 109 106 85 57 31 357 4 72 207 306 46 300 317 30 229 115 115 134 105 246 273 281 285 325 289 257 245 250 257 253 251 253 253 256 257 261 266
175 171 182 179 172 167 161 158 156 158 161 162 162 159 160 162 159 157 145 118 60 37 73 102 121 131 105 93 105 95 96 99 95 103 108 106 107 107 106 104 102 98 95 98 101 101 98 100 100 94 87 82 58 74 66 7 325 328 29 80 245 203 291 303 336 332 97 108 281 67 238 258 264 272 277 277 279 266 253 257 257 254 255 255 257 259 262 266
184 175 184 186 173 165 160 158 157 160 161 161 161 161 165 164 160 160 148 119 87 88 101 105 127 131 84 94 102 88 97 97 102 117 117 114 113 111 111 108 102 98 94 88 68 63 69 78 100 90 34 40 23 63 89 247 210 215 180 108 266 294 252 266 287 235 116 75 266 216 256 263 271 278 280 282 281 264 252 255 259 258 257 256 257 259 261 264
188 178 183 187 173 166 161 158 159 162 162 161 163 162 164 160 153 150 152 157 98 98 114 73 82 119 116 105 97 93 100 100 109 122 126 127 122 123 118 103 88 69 74 68 31 40 57 64 77 69 27 17 352 65 133 179 157 168 170 144 153 239 263 246 269 253 162 148 247 226 245 269 280 284 284 288 283 260 255 254 255 256 258 257 256 257 259 262
191 180 182 184 175 169 162 160 162 165 164 162 164 163 161 152 134 94 62 76 78 80 90 73 70 91 109 107 104 103 98 93 98 114 134 139 138 138 112 74 39 38 44 51 360 29 56 60 54 58 270 311 282 154 119 120 109 116 111 88 121 194 283 262 290 298 173 195 259 234 245 271 276 276 278 283 284 263 253 250 252 253 255 255 255 256 257 260
193 183 184 182 175 173 166 166 167 168 167 165 166 163 164 158 119 100 92 76 75 78 83 88 87 94 100 102 108 104 94 89 89 99 116 135 151 153 72 17 48 39 16 343 327 27 56 72 50 260 236 305 267 144 90 78 72 76 97 68 46 208 262 260 311 313 219 196 278 308 308 277 267 267 274 277 267 250 245 246 253 255 253 253 253 254 256 259
194 187 184 182 177 176 174 173 172 173 170 168 170 167 170 168 144 160 127 85 78 79 81 90 94 99 99 97 94 87 90 82 76 76 84 141 166 225 341 48 69 61 348 3 47 24 42 90 240 285 232 63 44 63 69 73 77 65 92 82 340 268 273 302 342 336 11 186 274 350 345 285 273 270 271 265 244 244 250 251 258 261 255 250 249 252 254 255
195 188 183 183 180 180 182 180 177 177 174 173 176 172 170 170 152 162 139 95 80 71 81 95 94 97 94 86 75 64 75 59 46 38 27 33 129 48 73 73 70 67 359 16 101 80 38 217 270 334 199 96 27 24 49 64 71 64 90 117 281 298 339 314 312 328 338 192 272 328 323 283 287 288 270 260 244 245 251 251 259 257 246 242 242 247 248 246
197 188 184 185 184 186 187 184 180 180 181 180 181 175 166 166 158 157 126 89 78 64 81 92 87 90 83 75 61 60 80 63 39 28 22 43 89 61 73 80 72 64 9 25 105 104 90 283 327 53 63 112 72 21 46 58 12 349 131 128 274 300 322 266 287 323 321 7 360 340 323 287 309 315 272 267 256 252 248 248 254 246 238 238 237 239 238 237
198 192 188 187 187 188 187 186 185 183 182 180 184 177 161 157 156 159 121 77 61 29 62 78 83 88 84 73 59 72 84 63 41 32 33 48 62 75 82 70 63 81 260 76 83 82 73 323 276 90 49 62 90 31 29 99 348 319 219 154 207 202 258 300 328 355 11 9 7 22 352 290 315 311 259 284 332 276 256 250 250 242 237 238 235 233 232 233
200 195 192 190 189 188 187 187 185 184 180 178 184 169 159 159 157 161 117 62 355 296 35 100 88 95 94 62 66 88 74 40 41 37 44 47 43 90 90 45 56 105 181 135 85 88 83 28 77 115 77 52 59 32 333 118 96 340 255 179 152 130 68 13 17 29 26 305 318 57 73 269 314 305 260 299 325 288 279 262 252 242 233 234 233 230 229 230
201 197 194 191 189 187 186 186 185 182 178 178 178 165 162 163 161 163 86 45 326 233 142 152 123 141 124 61 87 112 56 302 60 37 42 45 32 97 100 360 65 92 157 133 80 46 59 27 36 65 70 53 44 8 350 97 104 265 240 130 116 76 54 54 56 54 240 276 329 29 98 235 298 281 269 318 309 288 289 270 256 242 230 229 230 229 228 227
202 196 191 190 189 186 184 184 181 177 180 180 167 162 163 161 166 161 91 76 270 134 109 148 130 121 113 95 98 106 93 117 101 23 33 45 34 86 104 137 121 108 76 101 249 281 15 10 31 69 64 58 323 270 124 103 63 272 228 134 115 96 106 103 79 19 302 354 317 334 36 231 269 276 306 348 296 278 272 256 252 239 227 225 227 228 227 226
200 193 188 189 189 186 185 181 175 173 179 169 158 159 157 154 157 101 80 127 221 97 103 146 137 116 95 94 74 73 82 73 60 15 26 45 34 57 93 106 118 109 57 52 146 183 41 24 142 108 84 108 225 292 62 114 326 263 185 127 78 73 82 78 78 140 12 15 266 293 7 342 269 284 316 2 285 258 253 249 248 237 226 221 224 226 224 224
196 189 187 190 189 187 186 182 176 166 164 160 156 159 149 138 116 75 75 233 169 99 101 151 178 283 24 85 48 33 62 54 37 52 56 60 53 79 105 106 107 104 48 42 81 110 35 75 59 71 89 139 140 74 30 320 272 215 135 69 33 31 41 55 58 88 48 326 256 267 318 26 292 284 253 214 228 223 227 250 253 238 226 219 220 221 220 221
193 188 188 191 189 188 188 187 182 163 160 158 151 155 147 115 78 93 186 230 95 131 40 36 272 11 54 111 77 11 34 34 15 39 56 52 53 73 96 101 86 64 20 26 51 349 23 55 13 55 82 99 91 58 359 291 262 130 81 41 19 351 6 27 355 31 75 273 262 261 282 145 239 267 248 240 251 225 209 222 232 227 220 216 216 216 217 219
192 189 189 192 190 189 190 190 185 169 165 157 142 154 146 95 63 170 227 305 47 237 193 26 305 48 62 77 57 347 5 30 11 37 74 41 46 50 74 158 173 36 342 310 26 351 11 345 325 53 51 86 88 38 346 310 332 47 52 56 42 348 357 3 322 343 204 246 267 272 293 212 231 252 257 259 262 247 231 230 231 227 218 214 215 216 217 219
193 190 190 193 191 192 193 193 187 177 174 164 140 133 106 88 216 209 231 330 43 291 38 72 37 67 76 73 44 325 8 39 353 33 95 54 48 33 309 193 164 84 280 222 360 8 340 312 345 49 357 65 107 119 313 301 11 56 87 93 90 56 28 320 286 310 281 265 277 275 287 281 275 271 246 243 257 257 249 247 249 244 228 219 217 217 219 220
194 191 191 194 194 195 197 193 187 181 183 180 146 88 96 143 222 201 228 247 253 340 31 66 58 50 53 83 254 270 99 35 339 27 33 27 54 8 279 262 182 89 102 131 181 71 358 298 331 56 5 31 359 199 196 190 94 111 170 123 125 147 132 262 247 254 284 292 299 296 273 206 246 276 235 243 270 279 272 260 252 249 240 228 222 219 219 221
194 191 190 191 196 201 198 192 188 184 186 184 127 76 140 207 228 186 214 223 218 328 31 43 73 62 20 339 322 297 146 342 349 42 28 36 165 195 210 216 222 124 117 148 231 113 115 258 273 335 331 46 288 250 227 77 92 215 174 98 95 172 149 176 196 193 244 317 300 274 236 214 229 275 280 283 283 276 271 264 250 243 238 233 229 223 221 222
192 190 188 188 196 201 196 190 183 180 184 174 107 107 200 217 210 177 172 153 150 154 125 63 72 76 348 302 339 358 38 307 23 54 359 286 200 201 202 212 207 165 140 154 207 144 73 276 298 358 336 54 12 280 306 356 260 210 110 154 235 156 116 112 219 325 68 1 288 270 264 290 316 296 302 333 313 283 270 257 243 237 235 235 233 227 224 223
190 188 186 186 189 193 190 182 172 173 179 162 125 213 215 210 183 174 148 125 140 140 119 116 152 145 201 224 283 306 336 283 339 61 220 267 238 196 195 226 202 193 178 162 201 176 136 283 303 35 90 300 338 308 355 24 46 88 124 215 223 104 81 94 339 347 43 285 281 308 273 295 342 300 314 345 330 304 283 258 248 241 236 236 234 229 227 226
190 187 187 186 185 187 183 175 169 170 169 150 163 235 209 170 173 163 152 138 136 121 109 148 184 188 182 179 235 247 179 211 270 54 174 243 268 188 164 180 187 206 221 153 155 194 121 284 299 315 154 307 334 192 335 3 32 87 151 180 131 126 81 65 120 287 3 292 287 308 295 274 207 237 291 314 297 289 290 286 264 244 235 234 233 230 229 228
189 186 190 192 186 182 180 179 179 175 156 149 213 237 202 189 192 167 165 157 142 126 134 179 159 71 167 170 189 208 185 193 197 169 173 188 249 195 164 167 167 174 183 142 134 199 103 82 289 269 207 310 347 180 230 308 25 39 68 2 8 157 163 111 129 175 207 273 283 316 322 278 224 214 229 260 264 264 278 287 259 244 238 235 234 233 232 232
188 183 192 196 189 186 183 183 187 181 147 165 201 208 227 209 189 177 173 165 144 140 166 182 149 131 182 184 186 181 161 170 168 169 205 200 215 225 209 171 147 150 155 111 107 87 66 92 256 284 310 286 245 212 203 184 143 102 107 350 311 159 142 201 339 134 146 163 203 296 310 276 247 202 204 246 264 252 249 260 261 259 252 245 241 239 238 238
182 183 199 194 191 192 180 172 178 169 130 156 199 192 224 183 165 173 177 171 132 115 156 149 142 152 161 170 207 184 139 139 165 171 226 214 199 253 221 170 154 147 131 91 119 156 92 137 188 284 302 221 240 253 211 191 168 155 174 191 183 155 118 114 300 311 100 149 182 163 281 276 259 195 208 241 262 262 259 262 269 273 269 259 253 249 246 245
179 184 196 187 189 191 176 158 137 136 125 167 189 162 155 155 146 162 177 181 127 44 110 115 119 146 159 163 183 167 144 148 179 189 216 206 196 201 167 163 162 153 134 121 215 184 127 111 120 258 230 222 266 285 169 231 170 128 165 178 142 139 124 131 220 262 106 143 180 115 257 273 267 194 217 243 264 274 276 267 270 280 283 278 271 262 256 252
181 177 177 181 185 183 173 147 355 244 132 160 159 127 129 140 137 149 172 189 200 85 94 111 137 159 192 174 139 166 179 173 177 186 207 210 210 203 162 156 160 154 130 109 180 147 123 103 96 289 291 313 316 315 302 305 80 92 277 191 143 160 146 145 175 184 155 190 169 106 260 269 280 249 236 254 271 278 279 271 272 283 294 299 294 284 271 262
177 163 164 176 179 179 177 165 177 204 252 127 103 94 121 143 153 154 171 193 193 160 136 178 176 163 180 121 116 174 195 184 194 198 197 198 192 134 158 159 166 162 142 163 154 154 188 158 104 14 333 340 345 349 335 321 226 211 244 219 176 129 104 119 147 109 259 220 169 152 250 260 272 294 275 271 281 287 286 283 281 286 297 306 305 301 292 279
163 143 155 172 176 181 190 191 164 160 167 134 98 129 140 104 172 177 174 175 178 170 151 163 155 133 108 94 86 111 135 65 215 195 117 195 208 84 159 179 186 180 210 235 154 153 182 170 125 132 191 263 277 292 266 246 226 227 228 213 212 159 129 148 135 114 238 234 161 169 243 263 276 295 289 279 284 293 289 288 287 287 293 298 299 300 299 294
165 152 150 165 178 190 201 205 174 147 150 153 121 186 171 104 179 183 160 162 181 171 136 107 142 117 71 115 106 66 25 31 46 136 169 211 248 3 147 181 195 195 192 145 156 142 121 180 173 165 187 210 206 219 220 167 143 206 215 204 201 194 168 137 115 167 199 176 182 222 242 274 285 283 282 281 275 273 280 283 285 287 291 295 295 295 295 294
175 181 168 156 176 201 207 214 191 159 156 169 167 183 176 155 121 157 166 194 196 177 147 82 161 158 155 164 147 141 190 47 32 147 161 184 247 8 129 173 177 196 185 148 166 132 89 270 232 188 219 236 200 208 218 151 200 214 206 208 197 190 172 151 185 211 158 129 255 247 225 251 273 275 278 283 277 262 271 279 285 291 293 292 290 288 287 285
183 192 179 170 172 184 193 210 192 160 148 169 168 157 169 171 168 172 187 192 180 183 175 215 233 202 186 172 155 152 162 56 330 218 150 127 160 38 37 255 213 201 192 165 182 145 109 229 232 178 254 276 259 231 210 176 239 229 202 216 201 178 175 191 217 212 158 191 251 255 217 227 261 274 278 278 280 285 286 287 290 291 290 289 288 287 285 283
177 164 174 179 186 182 181 186 174 159 154 168 165 153 172 182 194 189 156 119 179 225 191 205 247 215 189 175 145 143 172 168 225 224 179 136 176 131 88 225 220 201 185 155 181 166 140 222 220 141 285 295 313 320 236 189 261 283 241 232 205 184 195 208 224 216 197 231 253 262 264 263 267 270 271 276 283 290 291 289 289 287 287 289 289 287 286 287
185 174 168 170 167 162 164 162 159 159 164 172 189 210 176 179 193 199 172 159 173 210 184 205 245 208 182 177 157 177 201 176 153 212 181 146 157 196 189 191 169 156 162 149 127 138 168 240 224 101 334 301 316 6 27 149 219 258 262 251 209 200 216 225 240 229 215 247 257 263 277 279 269 266 269 277 284 290 289 286 287 289 291 292 290 288 288 288
196 193 180 168 147 136 154 154 151 152 163 188 198 201 175 191 194 180 190 204 189 168 185 195 184 136 130 173 196 233 212 165 96 114 176 167 168 189 201 185 155 142 141 171 141 125 154 231 10 78 10 288 311 8 351 344 228 249 267 259 223 210 216 220 229 203 199 232 251 266 272 261 263 272 282 285 285 288 287 288 292 296 297 295 290 290 291 290
196 192 185 176 164 155 161 146 136 158 188 193 185 174 179 203 193 174 182 241 217 197 206 197 172 130 98 191 222 235 214 180 40 77 158 166 150 154 160 160 156 153 158 157 129 129 145 142 140 110 172 271 299 345 327 348 343 271 261 242 214 209 218 232 246 219 206 215 231 244 242 247 269 291 301 295 292 292 293 295 299 301 301 300 295 294 296 296